TimeCDT,TemperatureF,Dew PointF,Humidity,Sea Level PressureIn,VisibilityMPH,Wind Direction,Wind SpeedMPH,Gust SpeedMPH,PrecipitationIn,Events,Conditions,WindDirDegrees,DateUTC
12:11 AM,35.6,26.6,70,30.13,10.0,Calm,Calm,-,N/A,,Overcast,0,2012-11-03 05:11:00
12:32 AM,35.6,26.6,70,30.13,10.0,Calm,Calm,-,N/A,,Overcast,0,2012-11-03 05:32:00
12:52 AM,35.6,28.4,75,30.13,10.0,Calm,Calm,-,N/A,,Overcast,0,2012-11-03 05:52:00
1:11 AM,35.6,28.4,75,30.13,10.0,Calm,Calm,-,N/A,,Overcast,0,2012-11-03 06:11:00
1:32 AM,35.6,28.4,75,30.14,10.0,Calm,Calm,-,N/A,,Overcast,0,2012-11-03 06:32:00
2:12 AM,35.6,28.4,75,30.13,10.0,Calm,Calm,-,N/A,,Overcast,0,2012-11-03 07:12:00
2:32 AM,35.6,28.4,75,30.13,10.0,Calm,Calm,-,N/A,,Overcast,0,2012-11-03 07:32:00
3:12 AM,35.6,28.4,75,30.13,10.0,Calm,Calm,-,N/A,,Overcast,0,2012-11-03 08:12:00
3:31 AM,35.6,28.4,75,30.13,10.0,Calm,Calm,-,N/A,,Overcast,0,2012-11-03 08:31:00
3:52 AM,35.6,28.4,75,30.12,10.0,Calm,Calm,-,N/A,,Overcast,0,2012-11-03 08:52:00
4:11 AM,35.6,28.4,75,30.12,10.0,Calm,Calm,-,N/A,,Overcast,0,2012-11-03 09:11:00
4:32 AM,35.6,28.4,75,30.12,10.0,Calm,Calm,-,N/A,,Overcast,0,2012-11-03 09:32:00
4:52 AM,35.6,28.4,75,30.13,10.0,Calm,Calm,-,N/A,,Overcast,0,2012-11-03 09:52:00
5:11 AM,35.6,30.2,81,30.14,10.0,Calm,Calm,-,N/A,,Overcast,0,2012-11-03 10:11:00
5:32 AM,35.6,28.4,75,30.14,10.0,Calm,Calm,-,N/A,,Overcast,0,2012-11-03 10:32:00
5:51 AM,35.6,28.4,75,30.14,10.0,Calm,Calm,-,N/A,,Overcast,0,2012-11-03 10:51:00
6:12 AM,35.6,30.2,81,30.14,10.0,Calm,Calm,-,N/A,,Overcast,0,2012-11-03 11:12:00
6:31 AM,35.6,30.2,81,30.15,10.0,Calm,Calm,-,N/A,,Overcast,0,2012-11-03 11:31:00
6:52 AM,35.6,30.2,81,30.16,10.0,Calm,Calm,-,N/A,,Overcast,0,2012-11-03 11:52:00
7:12 AM,33.8,30.2,87,30.16,10.0,Calm,Calm,-,N/A,,Overcast,0,2012-11-03 12:12:00
7:31 AM,33.8,30.2,87,30.15,10.0,Calm,Calm,-,N/A,,Overcast,0,2012-11-03 12:31:00
7:52 AM,33.8,30.2,87,30.16,10.0,Calm,Calm,-,N/A,,Overcast,0,2012-11-03 12:52:00
8:12 AM,33.8,30.2,87,30.17,10.0,Calm,Calm,-,N/A,,Overcast,0,2012-11-03 13:12:00
8:31 AM,35.6,30.2,81,30.17,10.0,Calm,Calm,-,N/A,,Overcast,0,2012-11-03 13:31:00
8:52 AM,35.6,30.2,81,30.18,10.0,Calm,Calm,-,N/A,,Overcast,0,2012-11-03 13:52:00
9:12 AM,37.4,30.2,75,30.18,10.0,Calm,Calm,-,N/A,,Overcast,0,2012-11-03 14:12:00
9:31 AM,37.4,28.4,70,30.19,10.0,Calm,Calm,-,N/A,,Overcast,0,2012-11-03 14:31:00
9:52 AM,37.4,28.4,70,30.19,10.0,SSE,3.5,-,N/A,,Mostly Cloudy,160,2012-11-03 14:52:00
10:12 AM,37.4,32.0,81,-9999,10.0,Calm,Calm,-,N/A,,Overcast,0,2012-11-03 15:12:00
10:31 AM,32.0,28.4,87,30.19,10.0,Calm,Calm,-,N/A,,Unknown,0,2012-11-03 15:31:00
10:52 AM,39.2,28.4,65,30.19,-9999.0,Calm,Calm,-,N/A,,Mostly Cloudy,0,2012-11-03 15:52:00
11:12 AM,39.2,28.4,65,30.18,10.0,Calm,Calm,-,N/A,,Overcast,0,2012-11-03 16:12:00
11:32 AM,41.0,28.4,61,30.19,10.0,Calm,Calm,-,N/A,,Overcast,0,2012-11-03 16:32:00
11:52 AM,41.0,28.4,61,30.19,10.0,Calm,Calm,-,N/A,,Overcast,0,2012-11-03 16:52:00
12:11 PM,42.8,26.6,53,30.19,10.0,Calm,Calm,-,N/A,,Overcast,0,2012-11-03 17:11:00
12:32 PM,42.8,26.6,53,30.18,10.0,Calm,Calm,-,N/A,,Overcast,0,2012-11-03 17:32:00
12:52 PM,42.8,26.6,53,30.18,10.0,Calm,Calm,-,N/A,,Overcast,0,2012-11-03 17:52:00
1:11 PM,42.8,26.6,53,30.18,10.0,Calm,Calm,-,N/A,,Overcast,0,2012-11-03 18:11:00
1:31 PM,42.8,26.6,53,30.18,10.0,Calm,Calm,-,N/A,,Overcast,0,2012-11-03 18:31:00
1:52 PM,44.6,26.6,49,30.18,10.0,Calm,Calm,-,N/A,,Mostly Cloudy,0,2012-11-03 18:52:00
2:12 PM,44.6,26.6,49,30.18,10.0,Calm,Calm,-,N/A,,Mostly Cloudy,0,2012-11-03 19:12:00
2:31 PM,44.6,26.6,49,30.17,10.0,Calm,Calm,-,N/A,,Mostly Cloudy,0,2012-11-03 19:31:00
2:52 PM,44.6,26.6,49,30.17,10.0,Calm,Calm,-,N/A,,Mostly Cloudy,0,2012-11-03 19:52:00
3:12 PM,44.6,26.6,49,30.17,10.0,Calm,Calm,-,N/A,,Overcast,0,2012-11-03 20:12:00
3:32 PM,44.6,26.6,49,30.17,10.0,NW,4.6,-,N/A,,Overcast,320,2012-11-03 20:32:00
3:52 PM,44.6,26.6,49,30.17,10.0,NNW,3.5,-,N/A,,Overcast,330,2012-11-03 20:52:00
4:11 PM,44.6,26.6,49,30.17,10.0,Calm,Calm,-,N/A,,Overcast,0,2012-11-03 21:11:00
4:32 PM,44.6,26.6,49,30.17,10.0,Calm,Calm,-,N/A,,Overcast,0,2012-11-03 21:32:00
4:52 PM,44.6,28.4,53,30.17,10.0,NNW,5.8,-,N/A,,Overcast,340,2012-11-03 21:52:00
5:11 PM,42.8,28.4,57,30.17,10.0,NNW,4.6,-,N/A,,Overcast,340,2012-11-03 22:11:00
5:32 PM,42.8,28.4,57,30.17,10.0,NNW,3.5,-,N/A,,Overcast,330,2012-11-03 22:32:00
5:51 PM,42.8,28.4,57,30.17,10.0,NNW,3.5,-,N/A,,Overcast,340,2012-11-03 22:51:00
6:12 PM,42.8,28.4,57,30.17,10.0,Calm,Calm,-,N/A,,Overcast,0,2012-11-03 23:12:00
6:31 PM,42.8,28.4,57,30.17,10.0,Calm,Calm,-,N/A,,Overcast,0,2012-11-03 23:31:00
6:52 PM,41.0,28.4,61,30.18,10.0,Calm,Calm,-,N/A,,Overcast,0,2012-11-03 23:52:00
7:12 PM,41.0,30.2,65,30.19,10.0,Calm,Calm,-,N/A,,Overcast,0,2012-11-04 00:12:00
7:31 PM,41.0,30.2,65,30.18,10.0,Calm,Calm,-,N/A,,Overcast,0,2012-11-04 00:31:00
7:52 PM,39.2,30.2,70,30.19,10.0,Calm,Calm,-,N/A,,Overcast,0,2012-11-04 00:52:00
8:12 PM,41.0,30.2,65,30.18,10.0,Calm,Calm,-,N/A,,Overcast,0,2012-11-04 01:12:00
8:31 PM,41.0,30.2,65,30.18,10.0,Calm,Calm,-,N/A,,Overcast,0,2012-11-04 01:31:00
8:52 PM,39.2,28.4,65,30.18,10.0,Calm,Calm,-,N/A,,Overcast,0,2012-11-04 01:52:00
9:12 PM,39.2,30.2,70,30.18,10.0,Calm,Calm,-,N/A,,Overcast,0,2012-11-04 02:12:00
9:31 PM,39.2,30.2,70,30.18,10.0,Calm,Calm,-,N/A,,Overcast,0,2012-11-04 02:31:00
9:52 PM,39.2,30.2,70,30.18,10.0,Calm,Calm,-,N/A,,Overcast,0,2012-11-04 02:52:00
10:11 PM,39.2,30.2,70,30.18,10.0,Calm,Calm,-,N/A,,Mostly Cloudy,0,2012-11-04 03:11:00
10:32 PM,39.2,30.2,70,30.18,10.0,Calm,Calm,-,N/A,,Overcast,0,2012-11-04 03:32:00
10:52 PM,39.2,30.2,70,30.18,10.0,Calm,Calm,-,N/A,,Overcast,0,2012-11-04 03:52:00
11:11 PM,39.2,30.2,70,30.19,10.0,Calm,Calm,-,N/A,,Overcast,0,2012-11-04 04:11:00
11:32 PM,39.2,30.2,70,30.20,10.0,Calm,Calm,-,N/A,,Light Drizzle,0,2012-11-04 04:32:00
11:52 PM,39.2,32.0,75,30.20,7.0,Calm,Calm,-,N/A,Rain,Rain,0,2012-11-04 04:52:00